Temp
19 19 21 23 23 23 23 23 24 24 24 23 23 23 23 23 23 23 24 24 24 24 24 25 25 25 26 25 25 26 26 26 26 26 27 27 26 26 26 26 26 26 26 26 25 25 25 25 25 25 26 26 26 26 26 26 26 26 26 26 26 26 26 26 26 27 27 27 28
18 19 20 22 22 22 23 23 24 24 24 23 23 23 23 23 23 24 24 24 24 25 25 25 26 26 26 26 26 26 26 26 26 26 27 26 26 26 26 26 26 26 26 26 26 25 25 25 25 25 25 26 26 26 26 26 26 25 25 25 25 26 26 26 26 27 27 27 28
18 19 19 19 19 20 21 22 22 22 22 23 23 24 24 24 24 24 24 25 25 25 26 26 26 26 26 26 26 26 26 26 26 26 26 26 26 26 26 26 26 26 26 26 26 26 25 25 25 25 25 25 25 25 25 25 26 25 25 25 25 26 26 26 26 27 27 27 27
18 18 18 18 17 18 19 21 21 20 21 23 23 24 24 24 25 25 25 25 25 26 26 26 26 26 27 27 27 26 27 27 27 27 26 26 26 26 26 26 26 26 26 26 26 26 26 25 25 25 25 25 24 24 24 25 25 25 25 25 25 26 26 26 26 26 27 27 27
18 18 18 19 18 18 19 20 19 19 20 22 23 23 24 24 25 25 25 25 25 26 26 26 27 27 27 27 26 26 26 27 28 27 26 25 26 26 26 26 26 26 26 26 26 26 26 26 25 25 25 25 24 24 24 24 24 24 25 25 25 25 25 25 26 26 26 26 26
18 18 18 18 18 18 19 19 19 18 19 21 21 22 23 24 24 24 25 25 25 25 26 27 28 28 27 27 26 26 26 26 27 26 26 26 26 26 26 26 26 26 26 26 26 26 26 26 26 25 25 25 24 24 24 24 24 24 24 24 25 25 25 25 25 25 26 25 25
18 18 18 18 18 18 19 19 19 19 19 20 21 21 22 23 23 24 25 25 25 25 26 28 27 27 26 26 26 26 26 26 26 26 26 26 26 26 26 26 26 26 26 26 26 26 26 26 25 25 25 26 25 24 23 24 24 23 23 23 24 25 25 24 25 25 25 25 25
17 18 18 18 18 19 19 19 19 20 20 21 22 22 22 23 24 25 25 24 25 25 26 27 26 25 26 26 26 26 26 26 26 26 26 25 25 25 25 26 26 26 26 26 26 26 26 26 25 25 25 24 24 24 23 24 23 23 22 22 23 24 24 24 24 24 24 24 24
17 18 18 18 19 19 20 20 20 21 22 22 23 23 23 24 25 25 24 24 25 25 26 26 26 26 26 26 26 26 26 26 26 25 25 25 25 25 25 25 25 25 25 26 26 26 25 25 25 25 24 24 24 24 24 24 23 22 22 22 23 24 24 24 24 24 24 24 24
17 18 18 19 19 20 21 23 22 22 22 23 23 23 24 26 25 24 23 24 25 25 24 25 25 25 25 25 25 25 25 25 25 25 24 25 25 25 25 25 25 25 25 25 25 25 25 25 25 24 24 24 24 23 23 23 22 22 22 22 23 23 23 24 24 24 24 24 24
17 18 19 20 21 22 23 23 23 23 23 23 23 23 23 24 23 23 24 24 24 23 23 24 24 24 24 24 24 25 25 25 24 24 24 24 25 25 24 24 24 24 24 25 25 25 25 24 24 24 24 24 23 23 23 23 22 22 22 23 23 23 23 23 24 24 24 24 24
17 18 20 23 22 23 23 23 23 23 23 22 22 22 22 22 22 23 24 23 22 22 23 24 24 23 23 24 24 24 25 24 24 24 24 24 24 24 24 24 24 24 24 25 25 25 25 24 24 23 23 23 23 23 22 22 22 22 22 22 22 22 22 23 23 24 24 25 24
18 20 22 24 23 23 23 23 23 23 22 22 22 22 22 22 23 23 23 22 22 22 23 23 24 24 23 23 24 24 24 24 24 24 24 24 24 24 24 24 24 24 24 25 25 25 24 24 23 23 22 22 23 23 23 23 22 22 22 22 22 22 22 22 23 24 24 24 24
20 22 23 23 23 23 23 23 23 23 22 21 21 21 22 22 23 23 23 22 22 22 22 23 24 24 24 24 24 24 24 24 24 24 24 24 24 24 24 24 24 24 24 25 25 24 24 24 23 23 22 22 23 23 23 23 23 23 22 22 22 22 22 22 23 23 24 24 25
22 22 23 23 23 23 23 22 22 22 22 21 21 21 22 22 23 23 23 22 22 22 23 23 23 24 24 24 24 24 24 24 24 24 24 24 24 24 24 24 24 24 24 24 25 24 24 24 23 23 23 23 23 23 23 23 23 23 23 22 22 22 22 22 23 23 24 24 25
21 22 22 22 22 22 22 21 22 22 21 21 21 21 21 22 22 23 23 22 22 22 22 22 22 23 23 24 24 24 24 24 24 24 24 24 24 24 24 24 25 25 25 25 25 25 24 24 24 24 24 23 23 23 23 24 23 23 23 23 23 23 23 23 24 24 25 25 26
19 19 20 20 20 20 20 20 21 21 21 21 21 21 21 21 22 23 23 23 23 22 22 21 22 23 23 24 24 24 24 23 23 24 24 24 24 24 25 25 25 26 26 25 25 25 25 25 25 25 24 24 24 24 24 24 24 23 23 23 23 23 24 24 25 25 26 26 27
17 17 17 18 18 19 19 20 20 20 20 20 20 20 21 21 21 22 22 23 22 21 21 21 22 22 23 22 23 24 24 23 23 23 23 23 24 24 25 25 26 27 27 27 26 26 26 26 26 25 25 25 25 25 25 25 25 24 24 24 24 24 25 25 26 26 26 27 27
15 16 16 16 17 18 19 20 20 20 20 20 20 20 20 20 20 21 21 21 22 21 21 21 22 22 22 22 22 23 24 23 22 22 23 23 23 24 25 25 26 27 28 28 27 27 27 27 27 27 26 26 26 26 26 27 26 26 26 26 26 26 26 26 27 27 28 28 28
14 15 15 16 17 18 19 20 20 20 20 20 20 20 20 20 20 20 20 20 21 21 21 21 21 21 22 22 22 22 23 23 22 22 23 23 23 24 25 25 26 27 28 29 28 27 27 27 27 27 27 27 27 27 27 27 27 27 27 27 28 28 28 28 28 28 28 28 29
14 14 15 16 17 18 19 20 20 20 20 20 19 19 20 20 20 20 20 20 21 21 21 20 21 21 21 22 22 22 22 23 22 22 22 23 24 24 25 26 26 27 28 30 28 27 27 27 27 27 27 27 27 27 27 27 27 27 28 28 28 29 29 30 30 30 30 30 30
14 14 15 16 17 19 20 20 20 20 20 20 20 20 20 20 20 20 20 20 21 21 20 20 20 21 21 21 21 21 21 22 22 22 22 23 24 24 25 26 26 26 28 31 29 28 27 27 27 27 27 27 27 27 27 27 27 27 27 27 27 28 29 29 29 29 29 29 29
14 15 16 16 18 20 21 21 20 20 20 20 20 20 20 20 20 20 20 20 20 20 20 20 21 21 21 21 21 21 21 21 21 22 22 23 23 24 25 25 26 26 28 31 31 30 29 28 27 27 26 26 26 26 26 26 26 26 26 26 26 27 28 29 29 29 29 28 28
14 15 16 18 18 19 19 20 19 19 19 19 19 19 19 19 19 19 19 19 20 20 20 20 21 21 22 22 22 21 21 21 21 21 22 22 23 24 25 25 26 27 29 32 33 33 32 30 28 27 26 26 26 26 26 26 26 26 25 25 26 26 27 28 29 29 29 28 28
14 14 15 17 18 18 19 19 19 19 19 19 19 19 19 19 19 19 19 19 19 19 20 20 20 22 23 23 22 22 21 21 21 21 21 22 23 24 25 26 27 28 30 34 37 38 36 34 31 28 26 25 26 26 26 26 26 26 25 25 25 25 26 27 29 29 29 29 29
13 14 15 16 17 18 18 18 18 18 19 19 19 19 19 19 19 19 19 19 19 20 20 20 21 23 24 23 22 22 22 22 21 21 21 21 22 23 25 26 27 28 31 35 38 38 38 37 35 31 28 25 25 25 26 26 26 25 25 25 25 25 25 26 28 29 30 30 30
13 14 15 17 17 18 17 18 18 18 18 19 19 19 19 19 19 19 19 19 19 20 20 21 22 24 24 23 21 21 21 21 21 21 21 21 22 23 24 26 27 29 32 37 38 38 38 37 36 34 30 26 25 25 25 25 25 25 25 25 25 24 24 25 26 28 29 29 30
13 14 15 17 17 17 17 17 18 18 18 18 18 18 19 19 19 19 19 19 19 20 21 22 23 23 23 22 21 20 20 21 21 22 22 22 23 23 24 26 26 29 33 38 38 38 38 37 36 35 32 28 25 25 25 25 25 25 25 25 25 24 24 25 25 26 28 28 28
12 14 16 17 17 17 17 17 17 17 18 18 18 18 19 19 18 18 19 19 19 20 21 22 23 22 22 21 20 20 20 20 21 22 22 22 23 23 24 25 26 29 33 38 38 38 37 37 36 35 34 31 27 25 25 25 25 25 25 25 24 24 24 24 25 25 27 28 28
13 15 17 18 17 17 17 17 17 17 18 19 18 18 18 18 18 18 18 18 18 20 21 21 21 20 20 19 20 20 20 21 21 21 21 21 22 23 24 25 26 28 32 37 38 38 37 37 36 35 34 32 28 26 24 25 25 25 25 24 24 24 24 24 24 25 25 27 27
13 15 17 18 17 17 17 17 17 17 18 18 18 18 18 18 18 18 18 18 19 21 22 21 19 19 19 19 19 19 20 20 21 21 21 21 22 23 24 24 25 28 32 36 37 37 37 36 36 35 34 33 29 26 24 24 24 24 24 24 24 24 24 24 24 24 24 26 27
14 16 18 18 17 17 17 16 16 17 17 17 17 17 17 17 17 18 18 19 20 20 20 19 18 18 18 19 19 19 19 20 20 21 21 22 21 22 23 25 25 28 32 36 37 37 37 36 36 35 34 32 28 25 23 23 23 23 23 23 23 23 23 22 23 23 23 24 26
14 16 17 17 17 17 17 16 16 16 16 16 17 17 17 17 18 18 19 20 20 19 18 18 18 18 18 18 18 18 19 20 20 21 21 22 21 22 23 24 25 28 33 36 37 37 37 36 35 35 34 32 28 24 23 23 22 23 23 23 23 22 22 21 21 21 21 22 25
15 16 17 17 17 17 16 16 16 16 16 16 17 17 17 17 17 17 19 21 21 19 18 18 17 17 17 17 17 18 19 21 20 19 19 20 21 22 23 24 25 29 33 36 36 36 36 36 35 34 33 31 27 24 22 22 22 21 21 21 22 22 21 21 21 20 20 21 24
15 16 16 16 17 17 16 16 16 16 16 16 16 17 17 17 16 17 18 22 22 20 18 17 17 17 17 17 17 18 19 19 18 18 19 20 21 21 22 23 24 28 33 37 36 36 36 36 35 34 32 29 26 23 22 21 21 20 20 20 20 20 20 20 20 20 20 21 23
14 15 15 16 16 16 16 16 15 15 15 16 16 16 16 16 16 17 19 22 21 19 18 18 18 18 17 17 17 18 18 17 17 18 19 20 20 21 21 22 23 27 32 36 36 36 36 35 34 33 31 27 25 24 23 22 21 19 19 18 19 19 20 20 20 20 20 21 23
14 14 15 16 16 16 16 15 15 15 15 15 15 16 16 16 16 17 19 21 18 17 17 17 17 17 17 17 17 17 17 17 17 18 19 20 20 20 21 22 22 25 29 34 35 36 35 35 34 32 29 25 23 23 23 22 21 20 19 18 18 18 19 20 20 20 20 20 24
14 14 15 16 16 16 15 15 14 14 14 15 15 15 15 15 16 17 18 21 17 16 16 16 16 16 16 17 18 18 17 17 18 18 18 18 19 21 22 21 21 23 27 33 35 36 35 35 34 32 28 23 22 22 22 22 21 20 19 18 18 18 18 20 20 20 20 21 26
15 15 15 15 15 15 15 14 14 14 14 14 15 15 15 16 16 18 19 20 16 15 15 15 15 16 17 19 18 18 17 17 18 18 18 18 19 22 24 21 20 22 26 31 34 36 36 35 34 32 29 24 21 21 21 21 20 19 18 18 18 18 18 19 20 20 20 21 27
15 15 15 15 15 15 14 13 13 14 14 14 14 15 15 16 17 19 19 19 16 15 15 15 15 16 17 21 19 17 16 17 17 18 18 19 21 24 25 21 20 21 25 30 33 35 36 36 34 32 29 23 20 20 20 20 19 18 17 17 17 18 18 19 20 20 20 20 24
15 15 16 16 15 14 13 13 13 14 14 14 14 15 17 18 18 17 17 17 16 15 16 16 16 16 17 20 18 16 16 16 17 17 18 20 20 22 23 20 19 20 23 27 32 35 36 36 35 34 30 24 20 19 20 19 18 17 16 16 16 17 18 18 19 20 20 20 21
MSLP
1036.24 1036.12 1035.94 1035.72 1035.52 1035.36 1035.22 1035.06 1034.80 1034.64 1034.50 1034.36 1034.14 1033.94 1033.72 1033.46 1033.24 1033.00 1032.78 1032.56 1032.34 1032.08 1031.84 1031.58 1031.34 1031.08 1030.80 1030.58 1030.36 1030.12 1029.86 1029.62 1029.36 1029.08 1028.80 1028.56 1028.30 1028.08 1027.84 1027.62 1027.40 1027.18 1026.96 1026.74 1026.56 1026.36 1026.22 1026.06 1025.90 1025.68 1025.44 1025.18 1024.94 1024.72 1024.52 1024.40 1024.28 1024.08 1023.86 1023.68 1023.46 1023.24 1023.00 1022.74 1022.52 1022.28 1022.08 1021.90 1021.72
1036.28 1036.14 1036.00 1035.80 1035.64 1035.52 1035.34 1035.08 1034.90 1034.74 1034.58 1034.44 1034.22 1034.00 1033.74 1033.50 1033.28 1033.02 1032.78 1032.56 1032.36 1032.12 1031.84 1031.52 1031.28 1031.00 1030.74 1030.46 1030.22 1030.00 1029.72 1029.46 1029.18 1028.86 1028.58 1028.34 1028.06 1027.80 1027.58 1027.36 1027.12 1026.90 1026.68 1026.50 1026.30 1026.12 1025.96 1025.80 1025.62 1025.44 1025.22 1024.94 1024.74 1024.56 1024.40 1024.28 1024.14 1023.92 1023.72 1023.52 1023.36 1023.14 1022.90 1022.62 1022.36 1022.18 1022.02 1021.84 1021.64
1036.30 1036.14 1036.00 1035.84 1035.74 1035.58 1035.36 1035.12 1034.94 1034.80 1034.64 1034.44 1034.24 1034.02 1033.78 1033.52 1033.28 1033.02 1032.80 1032.56 1032.34 1032.06 1031.78 1031.50 1031.18 1030.90 1030.62 1030.34 1030.08 1029.86 1029.58 1029.28 1028.96 1028.62 1028.34 1028.06 1027.80 1027.56 1027.30 1027.06 1026.84 1026.62 1026.40 1026.18 1026.00 1025.84 1025.68 1025.50 1025.36 1025.18 1024.96 1024.74 1024.58 1024.44 1024.28 1024.14 1024.02 1023.80 1023.56 1023.36 1023.22 1023.02 1022.78 1022.52 1022.30 1022.12 1021.96 1021.78 1021.56
1036.30 1036.14 1036.00 1035.84 1035.74 1035.62 1035.44 1035.18 1035.00 1034.84 1034.64 1034.46 1034.24 1034.00 1033.78 1033.52 1033.28 1033.02 1032.80 1032.52 1032.28 1032.00 1031.72 1031.40 1031.12 1030.80 1030.50 1030.22 1029.94 1029.68 1029.40 1029.08 1028.74 1028.44 1028.14 1027.84 1027.52 1027.24 1027.00 1026.74 1026.52 1026.30 1026.12 1025.94 1025.72 1025.56 1025.40 1025.24 1025.08 1024.90 1024.72 1024.56 1024.44 1024.28 1024.12 1024.00 1023.84 1023.64 1023.44 1023.24 1023.06 1022.86 1022.64 1022.44 1022.24 1022.06 1021.86 1021.68 1021.50
1036.34 1036.18 1036.06 1035.86 1035.74 1035.62 1035.44 1035.22 1035.02 1034.84 1034.64 1034.46 1034.24 1034.00 1033.74 1033.50 1033.24 1033.00 1032.72 1032.44 1032.14 1031.86 1031.62 1031.34 1031.06 1030.72 1030.36 1030.08 1029.84 1029.52 1029.18 1028.90 1028.56 1028.24 1027.94 1027.62 1027.28 1026.96 1026.72 1026.50 1026.28 1026.06 1025.84 1025.64 1025.44 1025.28 1025.12 1025.00 1024.80 1024.64 1024.50 1024.36 1024.22 1024.08 1023.96 1023.80 1023.64 1023.46 1023.24 1023.08 1022.90 1022.74 1022.52 1022.34 1022.14 1022.00 1021.80 1021.58 1021.40
1036.34 1036.18 1036.02 1035.86 1035.72 1035.56 1035.36 1035.14 1034.96 1034.80 1034.62 1034.44 1034.18 1033.94 1033.72 1033.44 1033.18 1032.90 1032.64 1032.36 1032.08 1031.80 1031.52 1031.22 1030.94 1030.58 1030.28 1030.00 1029.68 1029.34 1029.00 1028.64 1028.36 1028.08 1027.72 1027.34 1027.00 1026.68 1026.46 1026.24 1026.06 1025.84 1025.62 1025.40 1025.22 1025.06 1024.90 1024.74 1024.58 1024.40 1024.24 1024.08 1023.96 1023.86 1023.74 1023.64 1023.46 1023.24 1023.06 1022.86 1022.72 1022.56 1022.40 1022.22 1022.02 1021.86 1021.68 1021.44 1021.22
1036.36 1036.18 1036.02 1035.84 1035.64 1035.50 1035.30 1035.12 1034.90 1034.72 1034.52 1034.34 1034.14 1033.86 1033.58 1033.34 1033.08 1032.84 1032.56 1032.30 1032.02 1031.74 1031.44 1031.08 1030.84 1030.58 1030.28 1029.90 1029.52 1029.18 1028.80 1028.46 1028.12 1027.78 1027.44 1027.08 1026.78 1026.50 1026.24 1026.02 1025.80 1025.62 1025.44 1025.22 1025.02 1024.84 1024.68 1024.52 1024.36 1024.18 1024.00 1023.86 1023.74 1023.64 1023.56 1023.46 1023.28 1023.08 1022.86 1022.68 1022.50 1022.30 1022.14 1022.00 1021.86 1021.68 1021.50 1021.28 1021.08
1036.36 1036.18 1036.00 1035.80 1035.62 1035.44 1035.24 1035.02 1034.84 1034.64 1034.44 1034.22 1034.00 1033.74 1033.50 1033.24 1032.96 1032.72 1032.50 1032.24 1032.00 1031.72 1031.44 1031.08 1030.80 1030.52 1030.22 1029.84 1029.44 1029.06 1028.68 1028.30 1027.90 1027.52 1027.18 1026.90 1026.62 1026.34 1026.12 1025.90 1025.64 1025.44 1025.18 1025.00 1024.80 1024.64 1024.46 1024.30 1024.14 1024.00 1023.80 1023.72 1023.52 1023.44 1023.30 1023.22 1023.06 1022.86 1022.64 1022.46 1022.24 1022.08 1021.96 1021.84 1021.64 1021.50 1021.30 1021.08 1020.92
1036.30 1036.12 1035.94 1035.74 1035.58 1035.40 1035.18 1034.96 1034.74 1034.56 1034.36 1034.12 1033.86 1033.64 1033.40 1033.12 1032.90 1032.68 1032.46 1032.22 1031.96 1031.72 1031.44 1031.08 1030.78 1030.44 1030.08 1029.74 1029.34 1028.94 1028.56 1028.14 1027.74 1027.36 1027.02 1026.74 1026.50 1026.22 1025.96 1025.72 1025.46 1025.22 1024.96 1024.74 1024.56 1024.36 1024.22 1024.06 1023.90 1023.74 1023.62 1023.46 1023.34 1023.18 1023.02 1022.92 1022.80 1022.64 1022.44 1022.22 1022.00 1021.78 1021.64 1021.52 1021.44 1021.30 1021.12 1020.92 1020.74
1036.28 1036.08 1035.90 1035.68 1035.50 1035.30 1035.08 1034.86 1034.68 1034.46 1034.24 1034.02 1033.78 1033.58 1033.34 1033.06 1032.86 1032.72 1032.50 1032.24 1031.96 1031.68 1031.40 1031.08 1030.72 1030.34 1029.96 1029.64 1029.24 1028.84 1028.46 1028.08 1027.68 1027.30 1027.00 1026.68 1026.40 1026.12 1025.80 1025.52 1025.24 1024.96 1024.72 1024.46 1024.28 1024.08 1023.92 1023.80 1023.62 1023.50 1023.34 1023.22 1023.06 1022.92 1022.80 1022.68 1022.56 1022.40 1022.18 1021.96 1021.72 1021.52 1021.36 1021.30 1021.22 1021.08 1020.92 1020.74 1020.56
1036.24 1036.06 1035.86 1035.64 1035.44 1035.22 1035.00 1034.80 1034.58 1034.36 1034.14 1033.94 1033.72 1033.52 1033.30 1033.08 1032.90 1032.68 1032.46 1032.22 1031.96 1031.68 1031.34 1031.02 1030.68 1030.30 1029.94 1029.56 1029.18 1028.80 1028.44 1028.06 1027.62 1027.24 1026.94 1026.62 1026.30 1025.96 1025.64 1025.34 1025.02 1024.72 1024.44 1024.14 1024.00 1023.84 1023.68 1023.50 1023.30 1023.14 1023.02 1022.86 1022.78 1022.68 1022.52 1022.44 1022.28 1022.12 1021.90 1021.72 1021.50 1021.30 1021.12 1021.02 1020.96 1020.90 1020.74 1020.56 1020.34
1036.22 1036.00 1035.74 1035.56 1035.40 1035.14 1034.94 1034.74 1034.52 1034.30 1034.08 1033.90 1033.68 1033.50 1033.28 1033.06 1032.86 1032.62 1032.36 1032.14 1031.90 1031.58 1031.24 1030.96 1030.62 1030.28 1029.90 1029.52 1029.14 1028.78 1028.36 1027.96 1027.58 1027.22 1026.86 1026.52 1026.12 1025.74 1025.40 1025.08 1024.74 1024.44 1024.12 1023.86 1023.64 1023.52 1023.36 1023.22 1023.02 1022.84 1022.68 1022.56 1022.46 1022.40 1022.28 1022.14 1022.00 1021.84 1021.64 1021.46 1021.30 1021.12 1020.90 1020.74 1020.68 1020.64 1020.56 1020.36 1020.14
1036.18 1035.94 1035.72 1035.50 1035.34 1035.12 1034.90 1034.72 1034.50 1034.28 1034.06 1033.84 1033.64 1033.46 1033.24 1033.02 1032.80 1032.56 1032.34 1032.08 1031.80 1031.50 1031.14 1030.84 1030.52 1030.22 1029.86 1029.52 1029.14 1028.78 1028.40 1027.94 1027.50 1027.08 1026.72 1026.36 1025.96 1025.56 1025.14 1024.80 1024.46 1024.12 1023.80 1023.56 1023.34 1023.22 1023.06 1022.90 1022.68 1022.52 1022.36 1022.24 1022.14 1022.06 1021.96 1021.90 1021.78 1021.62 1021.44 1021.22 1021.02 1020.84 1020.64 1020.46 1020.40 1020.40 1020.34 1020.14 1019.96
1036.08 1035.86 1035.68 1035.50 1035.28 1035.08 1034.86 1034.72 1034.50 1034.24 1034.02 1033.84 1033.62 1033.40 1033.22 1033.00 1032.74 1032.52 1032.28 1032.06 1031.78 1031.44 1031.12 1030.78 1030.44 1030.12 1029.80 1029.46 1029.12 1028.74 1028.36 1027.94 1027.46 1027.02 1026.58 1026.14 1025.78 1025.36 1024.96 1024.56 1024.18 1023.84 1023.52 1023.24 1023.02 1022.84 1022.72 1022.58 1022.40 1022.24 1022.12 1022.00 1021.84 1021.74 1021.64 1021.58 1021.52 1021.36 1021.22 1021.02 1020.80 1020.58 1020.40 1020.22 1020.14 1020.14 1020.12 1019.96 1019.78
1036.06 1035.86 1035.72 1035.52 1035.30 1035.08 1034.90 1034.72 1034.50 1034.24 1034.02 1033.84 1033.58 1033.40 1033.18 1032.96 1032.72 1032.46 1032.22 1031.96 1031.72 1031.40 1031.08 1030.74 1030.40 1030.06 1029.68 1029.36 1029.06 1028.72 1028.34 1027.94 1027.46 1027.00 1026.50 1026.00 1025.52 1025.12 1024.72 1024.30 1023.92 1023.56 1023.22 1022.86 1022.64 1022.50 1022.34 1022.22 1022.08 1021.96 1021.84 1021.72 1021.56 1021.44 1021.34 1021.28 1021.22 1021.08 1020.92 1020.74 1020.56 1020.40 1020.22 1020.06 1020.00 1019.96 1019.92 1019.78 1019.56
1036.14 1035.96 1035.78 1035.56 1035.34 1035.12 1034.94 1034.72 1034.50 1034.24 1034.02 1033.80 1033.58 1033.36 1033.18 1032.94 1032.72 1032.46 1032.18 1031.94 1031.64 1031.34 1031.00 1030.72 1030.44 1030.02 1029.58 1029.24 1028.96 1028.64 1028.28 1027.90 1027.46 1027.02 1026.52 1026.02 1025.50 1025.00 1024.46 1024.02 1023.64 1023.28 1022.92 1022.56 1022.30 1022.14 1022.02 1021.90 1021.80 1021.72 1021.58 1021.44 1021.30 1021.14 1021.06 1020.92 1020.86 1020.78 1020.64 1020.50 1020.36 1020.22 1020.06 1019.92 1019.86 1019.78 1019.68 1019.52 1019.34
1036.22 1036.02 1035.84 1035.62 1035.40 1035.18 1034.94 1034.72 1034.46 1034.24 1034.02 1033.80 1033.56 1033.36 1033.14 1032.94 1032.68 1032.44 1032.18 1031.90 1031.62 1031.34 1031.00 1030.72 1030.40 1030.00 1029.58 1029.18 1028.90 1028.62 1028.28 1027.90 1027.52 1027.12 1026.68 1026.18 1025.64 1025.06 1024.46 1023.90 1023.44 1023.02 1022.68 1022.36 1022.12 1021.92 1021.80 1021.68 1021.56 1021.46 1021.34 1021.22 1021.08 1020.92 1020.78 1020.64 1020.56 1020.44 1020.30 1020.22 1020.08 1019.96 1019.86 1019.74 1019.64 1019.56 1019.46 1019.34 1019.18
1036.24 1036.06 1035.84 1035.62 1035.44 1035.18 1034.94 1034.68 1034.44 1034.22 1034.00 1033.80 1033.56 1033.34 1033.12 1032.90 1032.68 1032.44 1032.14 1031.90 1031.62 1031.34 1031.02 1030.68 1030.34 1030.00 1029.64 1029.28 1028.96 1028.64 1028.30 1027.96 1027.62 1027.24 1026.80 1026.36 1025.84 1025.28 1024.64 1024.00 1023.36 1022.92 1022.58 1022.30 1022.12 1021.96 1021.80 1021.62 1021.44 1021.30 1021.18 1021.02 1020.90 1020.72 1020.56 1020.40 1020.24 1020.12 1020.00 1019.86 1019.78 1019.68 1019.58 1019.50 1019.44 1019.36 1019.28 1019.18 1019.06
1036.28 1036.06 1035.84 1035.62 1035.40 1035.14 1034.90 1034.64 1034.40 1034.18 1034.00 1033.78 1033.52 1033.30 1033.08 1032.90 1032.64 1032.44 1032.14 1031.86 1031.56 1031.30 1031.06 1030.72 1030.34 1029.96 1029.62 1029.30 1029.00 1028.64 1028.34 1028.06 1027.68 1027.30 1026.90 1026.44 1025.96 1025.44 1024.86 1024.22 1023.52 1023.00 1022.64 1022.40 1022.28 1022.12 1021.90 1021.68 1021.46 1021.28 1021.12 1020.96 1020.78 1020.58 1020.36 1020.22 1020.06 1019.90 1019.74 1019.58 1019.46 1019.36 1019.28 1019.24 1019.22 1019.18 1019.12 1019.12 1019.06
1036.24 1036.06 1035.86 1035.62 1035.36 1035.08 1034.86 1034.62 1034.36 1034.14 1033.94 1033.72 1033.50 1033.30 1033.08 1032.86 1032.64 1032.40 1032.18 1031.90 1031.56 1031.28 1031.02 1030.72 1030.36 1030.00 1029.62 1029.28 1028.96 1028.64 1028.36 1028.06 1027.74 1027.40 1026.96 1026.52 1026.06 1025.56 1025.06 1024.46 1023.80 1023.22 1022.80 1022.58 1022.50 1022.30 1022.08 1021.86 1021.64 1021.40 1021.22 1021.02 1020.86 1020.68 1020.46 1020.28 1020.06 1019.84 1019.62 1019.46 1019.28 1019.14 1019.06 1019.02 1019.02 1019.02 1019.06 1019.08 1019.06
1036.24 1036.06 1035.84 1035.58 1035.34 1035.06 1034.80 1034.52 1034.30 1034.12 1033.90 1033.68 1033.46 1033.28 1033.06 1032.84 1032.64 1032.44 1032.18 1031.90 1031.58 1031.28 1031.00 1030.72 1030.40 1030.02 1029.68 1029.34 1029.02 1028.72 1028.40 1028.08 1027.80 1027.50 1027.08 1026.64 1026.18 1025.72 1025.22 1024.68 1024.08 1023.46 1022.96 1022.64 1022.58 1022.46 1022.28 1022.08 1021.86 1021.64 1021.44 1021.24 1021.06 1020.90 1020.72 1020.50 1020.24 1020.00 1019.80 1019.62 1019.40 1019.24 1019.14 1019.08 1019.06 1019.06 1019.08 1019.06 1019.06
1036.22 1036.00 1035.74 1035.52 1035.28 1035.00 1034.72 1034.50 1034.28 1034.06 1033.84 1033.64 1033.44 1033.24 1033.02 1032.84 1032.62 1032.40 1032.14 1031.86 1031.56 1031.28 1031.00 1030.72 1030.40 1030.08 1029.74 1029.44 1029.14 1028.84 1028.50 1028.14 1027.80 1027.50 1027.14 1026.74 1026.30 1025.80 1025.28 1024.80 1024.30 1023.72 1023.12 1022.72 1022.58 1022.50 1022.36 1022.24 1022.06 1021.86 1021.68 1021.46 1021.30 1021.12 1020.96 1020.74 1020.52 1020.34 1020.14 1020.00 1019.84 1019.68 1019.52 1019.44 1019.36 1019.30 1019.28 1019.24 1019.22
1036.14 1035.94 1035.72 1035.46 1035.22 1034.94 1034.64 1034.46 1034.24 1034.02 1033.84 1033.62 1033.40 1033.18 1033.02 1032.80 1032.62 1032.36 1032.12 1031.84 1031.56 1031.28 1031.02 1030.74 1030.44 1030.12 1029.80 1029.50 1029.24 1028.96 1028.62 1028.22 1027.80 1027.44 1027.08 1026.78 1026.36 1025.90 1025.40 1024.96 1024.50 1023.92 1023.34 1022.84 1022.56 1022.40 1022.34 1022.30 1022.24 1022.12 1021.92 1021.74 1021.56 1021.40 1021.24 1021.06 1020.90 1020.78 1020.62 1020.46 1020.30 1020.12 1019.96 1019.80 1019.68 1019.58 1019.52 1019.46 1019.40
1036.12 1035.90 1035.64 1035.40 1035.12 1034.86 1034.64 1034.40 1034.22 1034.02 1033.84 1033.58 1033.40 1033.18 1033.00 1032.80 1032.58 1032.34 1032.08 1031.84 1031.58 1031.30 1031.02 1030.74 1030.46 1030.14 1029.80 1029.50 1029.24 1029.00 1028.72 1028.34 1027.94 1027.50 1027.12 1026.74 1026.36 1025.96 1025.56 1025.12 1024.72 1024.18 1023.56 1023.00 1022.62 1022.36 1022.28 1022.34 1022.44 1022.36 1022.22 1022.06 1021.90 1021.74 1021.58 1021.46 1021.30 1021.18 1021.02 1020.86 1020.68 1020.50 1020.28 1020.06 1019.86 1019.80 1019.74 1019.68 1019.58
1036.08 1035.84 1035.58 1035.34 1035.08 1034.84 1034.62 1034.40 1034.22 1034.02 1033.84 1033.58 1033.36 1033.14 1032.96 1032.74 1032.56 1032.34 1032.08 1031.84 1031.58 1031.34 1031.06 1030.78 1030.50 1030.14 1029.80 1029.56 1029.28 1029.02 1028.74 1028.44 1028.08 1027.68 1027.28 1026.86 1026.50 1026.08 1025.68 1025.28 1024.90 1024.40 1023.78 1023.22 1022.74 1022.46 1022.34 1022.36 1022.52 1022.62 1022.58 1022.44 1022.28 1022.08 1021.92 1021.78 1021.68 1021.52 1021.40 1021.22 1021.02 1020.84 1020.58 1020.30 1020.12 1020.00 1019.96 1019.86 1019.78
1036.02 1035.78 1035.52 1035.28 1035.02 1034.80 1034.58 1034.40 1034.24 1034.06 1033.84 1033.58 1033.36 1033.14 1032.94 1032.74 1032.56 1032.34 1032.12 1031.84 1031.58 1031.34 1031.06 1030.78 1030.52 1030.18 1029.86 1029.64 1029.36 1029.08 1028.80 1028.52 1028.22 1027.84 1027.50 1027.08 1026.72 1026.28 1025.84 1025.40 1025.08 1024.62 1024.06 1023.44 1023.02 1022.74 1022.56 1022.50 1022.58 1022.74 1022.84 1022.80 1022.64 1022.46 1022.30 1022.18 1022.02 1021.86 1021.72 1021.56 1021.40 1021.18 1020.96 1020.72 1020.46 1020.28 1020.14 1020.06 1019.92
1036.00 1035.74 1035.50 1035.24 1034.96 1034.74 1034.58 1034.40 1034.24 1034.02 1033.80 1033.56 1033.36 1033.18 1032.96 1032.72 1032.52 1032.30 1032.12 1031.86 1031.58 1031.30 1031.06 1030.78 1030.56 1030.28 1030.00 1029.78 1029.50 1029.22 1028.94 1028.64 1028.30 1027.96 1027.62 1027.30 1026.96 1026.52 1026.08 1025.64 1025.30 1024.86 1024.30 1023.68 1023.30 1023.02 1022.84 1022.72 1022.74 1022.86 1023.02 1023.12 1023.00 1022.86 1022.72 1022.56 1022.36 1022.22 1022.06 1021.86 1021.72 1021.56 1021.36 1021.18 1020.92 1020.64 1020.44 1020.28 1020.08
1036.00 1035.74 1035.44 1035.14 1034.94 1034.72 1034.52 1034.34 1034.18 1034.00 1033.78 1033.58 1033.40 1033.14 1032.94 1032.68 1032.50 1032.30 1032.08 1031.84 1031.58 1031.34 1031.06 1030.80 1030.58 1030.36 1030.14 1029.90 1029.64 1029.36 1029.08 1028.80 1028.50 1028.14 1027.78 1027.40 1027.06 1026.68 1026.30 1025.94 1025.62 1025.18 1024.56 1023.90 1023.52 1023.30 1023.14 1023.02 1023.00 1023.02 1023.14 1023.28 1023.28 1023.22 1023.06 1022.90 1022.72 1022.52 1022.34 1022.22 1022.06 1021.90 1021.74 1021.56 1021.34 1021.08 1020.78 1020.52 1020.34
1035.96 1035.68 1035.36 1035.08 1034.90 1034.72 1034.50 1034.30 1034.18 1034.00 1033.78 1033.58 1033.40 1033.14 1032.90 1032.72 1032.52 1032.30 1032.08 1031.84 1031.62 1031.36 1031.14 1030.90 1030.68 1030.50 1030.28 1030.06 1029.80 1029.52 1029.22 1028.90 1028.62 1028.30 1027.96 1027.58 1027.18 1026.84 1026.50 1026.14 1025.90 1025.50 1024.86 1024.08 1023.72 1023.52 1023.44 1023.30 1023.24 1023.22 1023.28 1023.40 1023.52 1023.50 1023.36 1023.18 1023.02 1022.84 1022.68 1022.52 1022.40 1022.28 1022.08 1021.92 1021.74 1021.50 1021.14 1020.84 1020.62
1035.90 1035.62 1035.34 1035.08 1034.86 1034.68 1034.52 1034.34 1034.18 1034.00 1033.78 1033.56 1033.36 1033.14 1032.94 1032.72 1032.52 1032.30 1032.08 1031.86 1031.64 1031.44 1031.22 1031.00 1030.80 1030.58 1030.44 1030.22 1029.96 1029.64 1029.34 1029.02 1028.74 1028.46 1028.14 1027.80 1027.40 1027.00 1026.58 1026.22 1025.96 1025.64 1025.08 1024.28 1023.84 1023.68 1023.62 1023.56 1023.50 1023.46 1023.46 1023.56 1023.72 1023.72 1023.62 1023.50 1023.30 1023.12 1022.96 1022.86 1022.72 1022.58 1022.44 1022.28 1022.08 1021.86 1021.58 1021.24 1020.92
1035.84 1035.58 1035.34 1035.08 1034.86 1034.72 1034.52 1034.30 1034.14 1033.96 1033.78 1033.58 1033.40 1033.18 1032.96 1032.74 1032.52 1032.30 1032.12 1031.90 1031.68 1031.44 1031.18 1031.00 1030.86 1030.72 1030.50 1030.24 1030.02 1029.78 1029.50 1029.18 1028.86 1028.58 1028.34 1028.02 1027.64 1027.24 1026.80 1026.36 1026.02 1025.68 1025.14 1024.46 1024.00 1023.84 1023.80 1023.78 1023.72 1023.68 1023.68 1023.74 1023.86 1023.86 1023.80 1023.68 1023.52 1023.40 1023.28 1023.14 1023.00 1022.86 1022.74 1022.58 1022.36 1022.18 1021.96 1021.58 1021.24
1035.80 1035.56 1035.30 1035.08 1034.90 1034.72 1034.52 1034.30 1034.14 1033.96 1033.78 1033.58 1033.40 1033.22 1033.00 1032.78 1032.56 1032.34 1032.12 1031.86 1031.62 1031.40 1031.24 1031.06 1030.90 1030.72 1030.50 1030.30 1030.08 1029.84 1029.56 1029.28 1029.02 1028.74 1028.46 1028.18 1027.86 1027.46 1027.02 1026.56 1026.12 1025.72 1025.22 1024.58 1024.14 1023.96 1023.96 1023.96 1023.92 1023.92 1023.90 1023.90 1024.02 1024.06 1024.00 1023.86 1023.74 1023.64 1023.52 1023.40 1023.28 1023.14 1023.02 1022.86 1022.68 1022.50 1022.22 1021.90 1021.52
1035.74 1035.52 1035.30 1035.14 1034.94 1034.74 1034.52 1034.30 1034.14 1033.96 1033.78 1033.58 1033.40 1033.24 1033.02 1032.80 1032.52 1032.30 1032.06 1031.80 1031.58 1031.44 1031.30 1031.18 1031.02 1030.84 1030.64 1030.44 1030.22 1029.96 1029.68 1029.40 1029.14 1028.90 1028.62 1028.30 1028.00 1027.62 1027.22 1026.78 1026.36 1025.90 1025.34 1024.78 1024.36 1024.14 1024.12 1024.12 1024.12 1024.14 1024.18 1024.18 1024.24 1024.24 1024.18 1024.06 1023.92 1023.84 1023.72 1023.58 1023.46 1023.30 1023.18 1023.06 1022.90 1022.72 1022.46 1022.14 1021.78
1035.74 1035.52 1035.36 1035.14 1034.94 1034.72 1034.52 1034.30 1034.14 1033.96 1033.80 1033.64 1033.44 1033.24 1033.02 1032.84 1032.62 1032.36 1032.08 1031.78 1031.58 1031.46 1031.34 1031.22 1031.06 1030.90 1030.72 1030.52 1030.34 1030.06 1029.78 1029.50 1029.28 1029.02 1028.78 1028.46 1028.12 1027.74 1027.36 1027.02 1026.64 1026.08 1025.46 1024.90 1024.62 1024.44 1024.30 1024.28 1024.30 1024.36 1024.40 1024.44 1024.50 1024.50 1024.40 1024.28 1024.14 1024.06 1023.92 1023.80 1023.62 1023.46 1023.34 1023.18 1023.02 1022.84 1022.64 1022.36 1022.02
1035.72 1035.56 1035.36 1035.12 1034.90 1034.72 1034.52 1034.36 1034.14 1034.00 1033.84 1033.68 1033.46 1033.24 1033.02 1032.84 1032.68 1032.44 1032.14 1031.84 1031.58 1031.46 1031.36 1031.22 1031.02 1030.84 1030.64 1030.50 1030.30 1030.08 1029.84 1029.62 1029.40 1029.14 1028.90 1028.58 1028.24 1027.90 1027.56 1027.22 1026.84 1026.34 1025.68 1025.06 1024.86 1024.62 1024.44 1024.44 1024.52 1024.56 1024.62 1024.68 1024.74 1024.72 1024.62 1024.52 1024.40 1024.30 1024.22 1024.06 1023.86 1023.68 1023.50 1023.34 1023.18 1023.02 1022.80 1022.56 1022.22
1035.68 1035.56 1035.36 1035.12 1034.90 1034.72 1034.56 1034.36 1034.22 1034.02 1033.86 1033.68 1033.50 1033.28 1033.08 1032.86 1032.64 1032.46 1032.18 1031.86 1031.68 1031.52 1031.36 1031.18 1031.00 1030.80 1030.64 1030.50 1030.28 1030.06 1029.90 1029.74 1029.52 1029.24 1028.96 1028.68 1028.40 1028.08 1027.74 1027.36 1027.02 1026.58 1025.96 1025.34 1025.08 1024.78 1024.56 1024.56 1024.62 1024.72 1024.80 1024.90 1024.94 1024.86 1024.74 1024.64 1024.58 1024.56 1024.46 1024.30 1024.14 1023.96 1023.78 1023.58 1023.40 1023.24 1023.06 1022.78 1022.40
1035.62 1035.50 1035.34 1035.12 1034.90 1034.72 1034.52 1034.36 1034.22 1034.06 1033.90 1033.72 1033.52 1033.34 1033.14 1032.90 1032.68 1032.44 1032.18 1031.94 1031.78 1031.58 1031.40 1031.18 1031.02 1030.84 1030.68 1030.56 1030.34 1030.14 1030.00 1029.84 1029.62 1029.34 1029.06 1028.80 1028.56 1028.24 1027.90 1027.56 1027.24 1026.86 1026.34 1025.72 1025.24 1024.90 1024.68 1024.62 1024.72 1024.86 1025.00 1025.06 1025.06 1025.00 1024.90 1024.80 1024.74 1024.68 1024.62 1024.50 1024.36 1024.22 1024.02 1023.80 1023.62 1023.46 1023.28 1023.02 1022.58
1035.56 1035.40 1035.28 1035.08 1034.90 1034.72 1034.56 1034.40 1034.24 1034.08 1033.90 1033.72 1033.52 1033.30 1033.08 1032.90 1032.68 1032.46 1032.22 1031.96 1031.86 1031.72 1031.50 1031.28 1031.08 1030.90 1030.74 1030.58 1030.36 1030.14 1029.96 1029.80 1029.62 1029.40 1029.18 1028.94 1028.64 1028.34 1028.02 1027.74 1027.46 1027.12 1026.64 1026.02 1025.44 1025.08 1024.90 1024.78 1024.80 1024.94 1025.08 1025.22 1025.24 1025.14 1025.06 1025.00 1024.90 1024.84 1024.74 1024.64 1024.50 1024.36 1024.22 1024.00 1023.80 1023.64 1023.46 1023.24 1022.78
1035.46 1035.34 1035.22 1035.06 1034.86 1034.72 1034.56 1034.40 1034.24 1034.08 1033.94 1033.72 1033.52 1033.28 1033.06 1032.86 1032.68 1032.46 1032.24 1032.06 1031.96 1031.80 1031.62 1031.36 1031.12 1030.94 1030.74 1030.52 1030.34 1030.14 1029.96 1029.74 1029.58 1029.44 1029.22 1029.00 1028.72 1028.36 1028.06 1027.90 1027.68 1027.34 1026.90 1026.34 1025.68 1025.30 1025.12 1025.02 1024.94 1025.00 1025.14 1025.28 1025.30 1025.28 1025.22 1025.14 1025.08 1025.00 1024.90 1024.78 1024.64 1024.46 1024.28 1024.12 1023.96 1023.78 1023.58 1023.40 1023.00
1035.40 1035.24 1035.12 1034.96 1034.84 1034.68 1034.56 1034.40 1034.24 1034.06 1033.90 1033.72 1033.52 1033.30 1033.08 1032.86 1032.64 1032.44 1032.22 1032.06 1031.94 1031.78 1031.58 1031.36 1031.12 1030.94 1030.72 1030.46 1030.34 1030.18 1030.00 1029.78 1029.58 1029.40 1029.22 1029.00 1028.72 1028.36 1028.12 1028.02 1027.80 1027.52 1027.12 1026.58 1025.96 1025.52 1025.24 1025.06 1024.94 1025.00 1025.18 1025.34 1025.34 1025.30 1025.28 1025.24 1025.18 1025.12 1025.06 1024.96 1024.80 1024.58 1024.40 1024.18 1024.02 1023.86 1023.72 1023.52 1023.24
1035.30 1035.18 1035.02 1034.90 1034.78 1034.64 1034.52 1034.40 1034.22 1034.00 1033.80 1033.64 1033.52 1033.30 1033.06 1032.84 1032.62 1032.44 1032.24 1032.08 1031.94 1031.74 1031.56 1031.34 1031.08 1030.86 1030.68 1030.46 1030.34 1030.18 1030.02 1029.80 1029.58 1029.36 1029.18 1028.96 1028.72 1028.44 1028.22 1028.12 1027.90 1027.62 1027.28 1026.86 1026.30 1025.74 1025.30 1025.00 1024.90 1025.00 1025.18 1025.34 1025.34 1025.30 1025.28 1025.28 1025.28 1025.28 1025.22 1025.12 1025.00 1024.80 1024.58 1024.34 1024.08 1023.90 1023.74 1023.58 1023.40
Wind_Speed
7 7 7 8 8 8 7 7 7 8 7 7 8 8 8 8 8 8 8 8 8 8 8 8 9 9 10 12 13 13 13 14 15 15 16 16 14 14 14 14 14 14 14 14 13 12 11 11 10 9 8 9 9 9 8 7 9 10 10 10 9 10 11 11 11 11 11 11 9
7 7 7 8 8 8 7 7 7 8 8 7 7 8 8 8 8 8 8 8 8 8 8 8 9 10 12 13 13 13 14 14 15 15 15 15 15 15 14 14 14 14 14 15 13 11 10 10 10 9 8 8 8 8 8 8 9 10 11 11 10 9 9 10 10 10 11 11 10
7 7 7 7 7 7 7 7 7 8 8 8 8 8 8 8 7 8 8 8 9 9 9 8 9 11 12 13 13 13 14 15 16 16 15 14 15 15 15 14 14 15 15 14 13 12 10 10 9 9 8 8 8 8 8 8 9 10 10 10 9 8 8 8 9 9 9 8 9
8 8 7 7 8 8 7 7 8 8 8 8 8 8 8 8 7 7 8 9 10 9 9 9 10 11 12 13 14 15 15 16 17 17 16 15 15 16 16 16 15 15 15 14 14 13 12 11 9 8 8 8 9 9 8 8 9 9 9 8 8 8 8 8 8 8 8 8 9
8 8 7 7 8 8 7 7 8 8 7 7 7 7 7 8 7 8 8 9 9 9 10 11 11 11 12 14 15 16 16 17 17 17 15 15 16 16 16 16 16 15 15 14 14 14 13 12 9 7 7 8 7 7 8 9 9 9 8 7 7 7 7 8 8 7 8 8 8
8 8 8 7 8 7 7 7 8 7 7 6 7 7 8 7 7 8 9 9 9 10 11 13 13 13 14 15 16 16 16 16 15 15 16 17 16 16 17 17 17 16 15 14 15 14 14 12 9 7 7 7 7 7 8 9 9 9 8 8 8 7 8 8 8 8 8 9 10
8 8 8 8 8 8 7 7 7 7 6 5 7 8 9 8 9 9 10 10 9 10 11 12 13 13 14 15 15 16 16 15 15 16 17 16 16 17 17 17 17 17 16 15 15 14 13 11 9 7 7 7 7 7 8 8 9 9 9 9 8 8 8 8 8 8 9 11 12
7 7 7 8 8 8 8 8 8 7 6 6 7 9 10 10 10 11 11 10 10 10 11 11 13 14 15 16 16 16 16 16 16 16 16 16 17 18 18 17 17 17 16 16 15 14 13 10 8 7 7 7 7 7 8 10 10 10 11 11 10 9 8 7 7 8 9 11 13
6 7 7 7 7 8 8 8 8 7 7 7 8 9 10 11 12 12 11 10 10 11 12 12 14 15 16 17 17 16 16 16 17 17 17 17 18 18 18 17 17 17 16 15 15 14 13 10 8 7 7 7 7 8 9 11 11 12 12 12 11 10 9 8 8 9 10 11 12
7 7 7 7 7 8 8 8 8 8 8 8 9 10 11 13 12 11 10 9 10 11 12 13 14 15 16 16 16 16 16 16 16 17 17 18 19 19 18 17 17 17 16 15 14 13 12 10 9 8 8 8 9 10 11 11 12 13 12 10 11 11 11 10 10 10 11 11 12
7 7 7 7 8 9 9 8 8 8 8 8 9 10 10 11 11 10 10 10 11 12 12 13 14 15 15 15 15 16 16 16 16 17 18 18 19 19 19 18 18 18 17 16 14 12 10 9 9 10 11 10 10 11 11 12 12 13 12 11 12 12 13 12 11 10 10 10 12
7 7 7 9 8 9 9 8 8 8 8 8 9 9 9 9 10 10 11 11 11 12 12 13 14 14 14 14 14 15 16 17 18 18 18 19 19 19 19 19 19 18 18 17 14 11 10 9 10 11 12 12 10 9 10 11 12 12 13 13 13 13 13 13 12 10 9 10 11
7 7 8 9 9 9 9 9 8 8 8 8 9 9 9 9 10 11 11 11 12 12 12 12 13 13 13 14 14 15 16 17 18 18 18 19 19 19 19 19 19 18 18 16 14 12 11 11 11 12 13 12 11 10 10 11 11 12 12 13 13 13 13 13 12 10 10 10 11
8 8 9 9 10 10 9 9 8 8 8 9 9 9 9 9 10 10 11 11 11 11 12 12 12 13 13 14 15 16 16 17 18 19 20 20 19 19 19 18 18 18 17 15 14 13 12 12 12 12 12 13 12 12 11 11 11 11 12 13 13 13 13 13 12 11 10 10 11
9 10 10 10 10 10 9 8 8 7 8 9 9 9 9 8 9 10 10 11 11 11 11 12 12 13 14 15 15 16 17 17 19 20 21 21 21 20 20 18 18 17 16 15 14 13 12 12 12 12 12 12 12 12 12 11 11 11 11 12 13 13 13 13 12 11 10 10 11
10 10 10 10 10 10 9 8 7 7 8 8 9 9 9 8 9 10 11 11 11 11 11 12 13 13 14 15 16 16 16 17 18 19 21 21 22 22 22 21 19 18 16 15 14 12 11 10 10 10 11 11 11 12 11 11 11 11 11 11 12 12 12 12 12 11 10 10 10
9 9 10 10 10 10 9 8 8 7 8 9 9 9 9 8 9 10 11 12 11 11 12 13 13 13 14 15 15 15 15 16 17 18 19 20 22 23 23 23 21 19 17 14 12 11 10 9 9 9 9 9 10 10 10 10 10 10 10 11 11 11 11 11 11 10 10 10 10
8 9 9 9 10 10 10 9 9 9 9 9 9 9 9 9 9 10 11 11 12 12 13 14 14 14 14 15 15 14 14 15 16 17 18 19 21 22 23 24 23 21 18 13 11 10 10 9 8 8 7 7 8 8 8 8 8 8 9 9 10 10 10 10 10 9 9 9 8
8 8 9 9 9 9 10 10 9 9 9 9 9 9 9 10 10 10 11 11 12 13 13 14 14 14 15 15 15 15 15 14 16 17 18 19 19 20 22 23 23 22 18 12 11 10 10 10 10 9 8 8 7 7 7 7 6 6 6 7 7 8 8 8 8 7 7 6 5
8 8 9 9 9 9 9 9 9 9 9 9 9 10 10 10 10 11 11 12 12 13 13 13 14 14 15 15 16 16 15 14 15 16 17 18 19 20 21 22 22 21 17 11 10 10 11 12 12 12 11 10 10 11 11 10 9 9 8 6 5 5 4 3 3 2 2 2 2
8 8 8 9 9 9 9 9 9 9 9 9 10 10 10 10 10 11 11 12 12 12 13 13 13 14 15 15 16 16 15 14 14 15 16 17 18 19 19 20 21 20 16 11 9 9 11 13 14 13 12 12 12 12 13 13 13 14 14 13 12 11 11 9 8 7 7 6 6
7 7 8 8 9 9 9 9 9 9 9 9 10 10 10 10 10 10 11 11 12 12 12 12 13 13 14 14 14 15 15 14 14 15 15 16 17 18 18 18 19 19 16 12 8 8 10 13 14 14 13 12 12 13 15 15 16 16 16 16 16 15 14 12 11 10 10 9 8
7 8 8 8 9 9 10 9 9 9 9 10 10 10 10 10 10 10 11 11 11 12 12 11 12 12 13 13 13 14 15 15 16 16 16 16 17 18 18 17 18 17 15 12 10 9 10 12 13 14 13 12 13 14 16 17 16 16 16 16 15 14 13 11 9 9 9 9 8
8 8 8 8 8 9 9 9 9 9 10 10 10 10 10 10 10 10 10 11 11 11 11 10 11 11 12 12 13 14 14 15 16 17 17 17 17 18 18 16 16 15 13 12 15 16 14 12 12 12 13 13 13 14 14 16 15 15 15 16 15 14 13 11 9 8 9 9 8
9 9 9 8 9 9 9 9 9 9 10 10 10 10 10 10 10 10 10 11 11 11 11 11 11 11 11 12 13 14 14 14 15 16 17 18 18 18 17 15 14 12 11 14 23 26 24 19 15 13 12 12 13 13 13 14 15 15 15 15 15 15 14 13 11 10 9 9 8
8 9 9 9 9 9 9 9 9 9 10 10 10 10 10 10 9 9 10 10 11 11 11 10 10 11 12 12 13 14 14 14 14 15 16 17 18 18 17 16 13 11 11 19 26 28 28 27 23 18 14 11 12 12 12 12 14 14 14 15 15 15 15 14 14 12 11 10 10
8 9 9 9 9 9 8 8 9 9 9 10 10 10 10 9 9 9 10 10 10 10 10 9 10 11 12 11 13 14 14 13 14 15 15 16 17 17 17 16 14 12 13 22 27 28 28 28 27 23 18 12 11 11 11 11 13 13 13 14 14 15 15 15 15 14 13 12 11
8 8 9 9 9 8 8 8 9 9 9 10 10 10 10 10 9 9 10 10 10 9 9 9 9 9 9 9 11 13 13 13 13 14 15 16 16 17 16 16 14 15 17 24 27 28 28 28 27 25 22 16 11 10 10 11 11 11 11 12 13 14 14 14 14 14 13 12 12
8 8 9 9 9 8 8 8 9 9 9 9 9 10 10 10 10 10 10 10 10 9 8 8 8 8 8 10 11 12 12 13 13 13 14 16 16 17 16 16 15 17 20 25 27 28 29 29 28 27 24 20 13 9 9 9 9 10 10 10 11 13 13 13 13 14 13 12 11
8 8 9 9 9 9 9 9 9 9 9 9 9 9 10 10 10 10 10 10 9 8 8 8 8 8 9 10 10 11 11 12 12 12 14 15 16 17 17 16 15 16 19 25 26 28 28 29 28 28 26 23 16 11 8 9 9 9 10 10 12 13 14 13 14 15 15 13 12
8 8 8 9 9 9 9 9 9 9 9 9 9 9 10 10 10 9 9 8 7 8 9 9 9 9 10 10 10 10 11 11 12 12 13 14 16 16 17 17 16 17 19 25 26 27 28 28 28 28 27 24 17 12 9 9 9 9 10 10 12 13 13 13 14 15 16 16 13
8 8 8 9 9 9 9 9 9 9 9 9 9 9 10 10 9 8 8 8 8 8 8 9 9 10 10 10 10 10 11 11 12 13 13 14 14 15 16 17 17 18 21 26 25 26 27 28 28 28 27 25 18 13 11 10 10 10 10 11 12 13 13 11 12 14 15 16 14
7 8 8 9 9 9 9 9 9 9 9 9 9 9 10 10 9 9 9 8 8 7 7 8 9 9 9 9 10 10 11 11 12 13 14 14 14 15 15 15 14 18 23 27 25 25 26 27 27 27 26 24 17 13 11 11 10 10 11 11 12 13 13 12 12 13 14 15 14
8 8 8 9 9 9 9 9 9 9 9 9 9 9 9 9 9 9 9 9 7 7 6 7 7 7 7 7 8 8 9 11 11 12 13 13 14 14 15 14 12 18 25 28 25 25 25 26 26 26 24 21 14 11 11 12 11 11 11 12 12 13 13 12 12 13 13 14 14
7 8 8 9 9 9 9 9 9 9 9 9 10 10 10 9 9 8 9 10 9 7 6 6 6 6 6 6 6 7 9 10 11 11 12 12 13 14 14 14 14 20 26 28 26 24 23 25 25 24 22 17 11 9 9 10 10 11 11 12 12 13 13 12 12 12 13 13 14
7 8 8 9 9 9 9 9 9 9 9 9 10 10 10 9 8 8 8 10 9 8 7 7 7 7 7 7 7 7 8 9 10 10 11 12 12 13 13 14 15 20 25 28 27 24 23 23 23 22 19 13 9 8 9 9 9 9 10 11 11 12 12 12 11 12 12 13 13
7 7 8 8 9 9 9 8 8 8 9 9 9 9 9 9 8 7 7 8 7 7 8 7 7 7 7 7 7 7 7 8 8 9 10 11 11 12 12 13 15 18 22 26 27 25 23 22 22 20 16 10 8 8 9 9 8 8 9 9 9 10 10 9 10 10 11 13 15
7 7 7 8 8 8 8 8 8 8 8 9 8 8 8 7 7 7 7 8 6 6 7 7 7 7 7 7 8 8 9 8 8 9 10 10 10 11 11 12 13 16 19 24 26 25 23 21 20 18 14 9 7 7 8 8 8 8 8 8 8 8 8 7 7 8 10 13 18
7 7 7 7 8 8 8 7 7 7 8 8 7 8 8 7 6 6 7 7 5 5 6 6 6 7 7 8 7 8 9 9 9 9 10 10 10 11 12 11 12 14 17 23 25 24 23 20 19 17 14 9 7 6 7 7 8 8 8 8 7 8 8 7 7 7 8 11 18
7 7 7 7 7 7 7 7 7 7 6 7 7 7 7 7 7 7 7 7 6 5 5 6 6 7 7 8 7 8 9 10 9 10 10 10 11 13 13 11 11 13 16 21 24 24 22 21 18 16 13 8 6 5 6 6 7 8 8 7 7 7 7 7 7 7 7 9 13
7 6 7 7 7 6 6 7 6 6 6 6 6 6 6 7 7 7 7 6 6 6 5 6 7 7 8 8 7 7 8 9 10 10 10 11 11 12 11 9 10 11 14 18 22 23 23 22 19 17 13 7 5 5 5 6 6 7 8 7 7 7 7 7 7 7 7 7 8
Wind_Direction
344 344 343 344 346 345 342 338 337 338 337 334 330 329 327 325 324 324 324 325 323 322 320 319 318 316 315 315 315 316 316 317 316 315 315 315 313 311 310 308 308 307 307 307 306 305 303 303 301 299 297 296 295 295 296 297 297 295 293 292 292 292 292 292 291 292 293 292 291
343 342 342 343 344 342 339 336 337 337 336 331 328 327 325 324 323 324 324 324 322 320 319 318 318 317 316 316 318 318 318 317 315 314 313 313 311 309 307 305 305 305 305 305 304 302 300 300 298 297 295 295 296 296 297 298 296 293 291 290 290 291 292 293 294 297 298 297 296
342 341 341 341 341 340 338 336 335 333 330 327 327 326 325 325 324 324 324 323 321 319 319 319 318 318 317 318 319 319 317 315 314 314 313 311 309 307 305 303 303 303 302 302 301 299 297 297 296 295 294 295 296 296 297 296 294 292 290 289 289 290 292 293 295 297 297 295 294
342 341 340 339 338 336 334 332 330 327 326 325 325 325 326 325 325 324 323 321 320 320 320 319 317 318 319 320 319 317 315 315 315 313 312 309 307 304 303 302 302 302 301 300 298 297 296 296 294 293 292 293 293 293 293 293 292 290 288 288 288 288 289 290 292 293 292 291 291
341 340 339 337 335 332 328 327 324 322 321 321 322 323 325 325 324 324 323 323 322 321 319 318 318 320 321 320 318 316 315 314 314 313 310 307 305 303 303 302 302 301 300 298 298 297 297 296 293 291 289 289 289 289 289 289 288 286 284 284 285 285 286 287 288 288 288 287 288
338 336 334 333 330 328 326 324 321 319 316 315 315 317 320 322 322 323 323 323 320 318 317 319 321 321 321 319 317 315 314 314 313 311 308 305 304 304 303 303 302 301 300 299 299 298 298 298 294 291 289 289 288 286 286 285 283 282 281 281 282 283 283 283 284 283 283 282 284
332 331 331 330 329 328 326 323 321 318 315 312 315 317 318 317 319 322 323 322 320 320 320 323 323 322 320 318 316 315 314 313 310 308 307 305 304 305 305 305 304 303 302 301 300 299 299 298 295 292 291 291 290 287 283 281 280 280 281 281 281 281 279 278 278 278 279 280 282
328 328 328 327 327 326 325 323 320 319 318 319 322 321 319 317 322 325 326 324 323 323 324 324 322 319 318 317 316 315 314 312 310 309 307 306 306 306 306 306 305 304 303 301 301 299 299 297 294 292 290 290 287 284 281 279 279 279 279 279 279 278 275 273 273 274 276 279 281
328 327 326 325 327 326 325 324 320 319 320 323 324 322 321 324 329 330 328 326 325 324 323 321 319 318 317 317 315 314 313 312 310 309 309 308 308 308 308 307 306 304 303 301 299 298 297 295 291 288 286 284 282 281 280 280 279 277 276 277 276 275 273 272 272 274 277 279 280
326 325 326 328 329 329 328 327 324 323 323 324 325 324 325 329 331 329 327 325 324 323 321 319 319 318 317 317 316 315 314 313 311 310 310 310 309 309 308 307 306 304 302 300 299 297 295 291 287 284 282 279 279 278 278 278 276 275 274 274 275 276 276 276 276 276 277 278 279
322 324 329 334 333 332 331 330 331 330 328 326 327 326 327 329 327 326 324 325 323 321 319 318 318 318 317 317 316 316 315 314 312 312 311 311 310 309 308 306 305 303 302 300 298 296 292 288 284 281 279 278 277 277 276 275 275 274 274 275 276 278 279 278 278 278 278 278 279
319 325 333 339 335 333 334 334 333 331 328 326 326 327 327 326 324 324 325 326 324 321 319 319 319 318 318 317 317 317 316 314 313 312 312 311 310 309 308 306 305 303 302 300 298 295 290 286 283 281 279 278 277 276 274 273 274 275 275 276 278 278 279 279 279 279 279 279 280
319 330 337 340 335 335 337 336 333 329 327 326 326 326 325 324 325 326 327 326 325 322 321 320 320 319 319 318 317 317 317 316 315 315 315 315 313 311 310 308 306 305 303 300 298 294 290 286 282 281 280 279 277 275 274 273 274 275 277 278 278 279 279 280 281 281 281 281 281
330 337 340 338 338 339 339 336 332 329 327 326 325 325 325 324 327 328 329 328 325 323 322 322 322 321 320 319 319 319 319 318 318 318 319 319 318 317 315 312 310 308 305 301 298 295 291 287 284 282 280 279 278 277 276 274 273 274 275 276 277 278 279 281 283 284 283 282 282
338 340 340 337 338 339 338 334 331 328 327 326 325 325 325 325 328 329 330 328 326 324 323 325 324 322 321 321 321 322 321 321 322 323 324 325 325 324 322 319 316 313 309 305 302 298 294 289 286 283 282 281 280 279 278 276 273 272 271 271 273 275 277 280 282 284 283 282 282
338 339 338 336 336 335 333 330 328 326 325 324 324 324 325 326 328 329 330 330 328 327 326 326 325 323 323 324 325 326 325 325 326 327 328 329 329 329 328 326 324 321 317 312 308 305 300 295 291 287 284 282 282 282 280 278 275 271 268 267 267 269 272 275 278 280 280 280 281
335 335 334 333 331 330 328 324 324 323 323 322 322 323 324 326 328 330 331 331 329 328 327 326 326 325 325 326 328 329 329 329 329 329 330 330 331 331 331 331 331 330 328 324 321 318 315 310 304 297 291 287 285 284 282 280 276 271 267 265 264 264 266 269 273 275 277 279 282
331 331 330 328 327 324 322 320 321 321 321 321 321 323 324 326 328 329 329 330 329 328 328 327 326 326 327 327 329 331 332 331 331 330 330 331 332 332 333 333 335 336 338 340 341 339 336 332 325 319 311 303 298 295 291 287 281 274 269 266 263 262 262 264 266 269 272 276 284
328 328 327 325 322 319 317 318 319 320 320 320 321 322 324 326 328 328 328 329 329 329 328 327 327 328 328 328 330 332 333 333 332 331 332 332 333 334 335 335 336 339 345 357 3 2 358 355 352 348 345 341 339 337 333 327 316 304 291 279 271 265 262 261 260 261 265 272 287
326 325 323 320 317 314 314 316 317 318 319 320 321 323 325 327 329 330 329 328 328 329 329 328 328 328 329 329 331 333 334 334 334 333 334 334 335 337 337 337 337 339 346 9 19 19 14 12 8 5 3 2 3 3 3 1 359 356 351 340 330 322 317 309 299 290 290 307 336
324 322 319 315 313 312 312 314 316 318 319 320 322 324 327 329 330 330 329 327 327 329 330 330 329 329 329 331 333 334 334 334 335 335 335 336 337 338 339 340 337 337 342 8 28 31 25 22 16 11 8 8 10 12 12 13 14 14 14 12 10 11 14 21 27 31 34 32 25
321 318 315 312 310 311 313 315 318 320 321 322 324 326 328 331 330 329 328 327 329 330 331 330 329 329 330 331 333 334 334 334 335 335 337 338 339 340 341 342 338 336 338 357 23 38 37 29 21 15 11 10 13 16 19 20 20 19 17 15 12 11 12 17 23 26 26 22 16
317 316 314 310 310 312 314 317 319 322 323 324 326 329 330 331 330 329 329 329 331 332 331 330 329 329 330 332 334 335 335 335 335 337 338 340 341 341 342 343 339 336 338 354 15 35 44 38 26 19 14 13 16 19 21 22 22 20 17 14 10 7 4 6 14 19 19 14 6
315 315 314 314 313 313 314 318 321 324 325 327 328 330 331 331 330 330 331 331 332 332 331 330 330 330 331 334 336 337 338 338 338 338 339 341 342 342 343 344 340 337 341 2 16 27 37 44 34 24 18 16 17 19 20 21 21 19 17 15 11 7 3 1 9 18 19 12 2
315 315 314 313 313 313 315 320 323 325 326 327 328 330 331 331 332 332 332 332 332 332 331 330 331 333 336 339 339 340 340 341 340 340 340 342 342 343 344 346 340 338 348 11 21 27 33 40 40 33 23 17 16 17 17 18 19 18 18 16 13 10 6 3 9 18 22 14 5
316 316 315 313 313 315 318 321 323 325 325 327 329 331 331 331 331 332 333 333 333 332 332 333 335 339 342 341 340 341 342 343 342 342 341 342 343 344 345 347 341 340 357 18 24 28 32 37 39 38 32 22 17 16 16 15 16 17 17 16 15 12 10 8 10 15 19 18 10
318 317 314 312 314 317 319 321 324 326 328 329 330 330 330 330 332 333 335 335 333 333 335 338 339 342 343 341 340 341 342 342 342 342 342 342 343 345 346 348 343 346 4 23 28 30 31 34 37 38 37 30 21 17 15 13 14 15 16 16 15 14 13 11 9 9 12 15 12
317 315 313 313 316 318 320 323 326 328 329 329 329 329 329 330 332 334 336 336 336 336 339 342 342 343 343 342 341 340 340 341 342 342 342 342 344 345 347 349 346 350 5 23 31 32 32 33 35 37 38 35 26 18 14 13 12 13 14 15 14 14 13 12 8 5 4 8 9
314 312 312 314 317 320 323 326 327 328 327 327 327 328 329 331 334 336 338 338 338 339 341 342 342 342 342 341 339 338 339 341 342 342 342 342 343 345 346 348 346 350 3 23 33 35 34 33 34 35 36 36 31 22 15 13 12 12 13 14 14 13 13 12 9 4 1 0 4
312 312 314 317 320 323 325 326 326 326 326 327 328 329 330 332 335 337 338 337 337 338 339 339 340 340 340 339 338 338 339 340 341 343 343 343 343 343 343 345 344 348 2 23 36 38 36 34 33 33 33 34 32 27 18 14 14 13 14 14 13 13 12 11 9 5 1 356 358
311 313 316 320 323 324 324 324 324 325 326 328 329 330 331 333 334 335 335 333 332 335 337 339 339 339 338 338 338 338 337 337 340 343 343 343 342 341 340 341 341 345 360 22 38 40 38 35 33 32 31 31 30 26 20 17 16 15 14 13 12 12 11 9 8 5 1 356 355
313 316 319 322 323 322 322 323 324 326 327 328 329 330 331 331 331 331 330 329 332 336 339 340 339 339 339 339 338 337 337 338 340 342 342 342 340 339 339 341 340 344 357 19 37 42 40 37 34 32 31 29 28 24 20 18 17 16 14 12 11 10 9 7 5 2 359 355 352
317 320 323 324 322 321 322 324 325 327 328 329 330 331 331 330 329 329 330 331 335 338 339 338 337 337 337 337 336 335 335 337 338 339 339 339 338 339 340 342 340 342 352 13 33 41 41 39 36 33 31 29 27 22 18 17 17 15 12 10 8 7 6 5 4 1 357 354 349
321 323 325 323 322 321 322 324 326 328 329 330 331 331 330 330 329 329 330 331 335 336 336 333 332 331 331 333 333 333 334 336 337 337 337 337 337 339 341 343 340 341 348 5 25 38 43 41 37 35 33 30 27 22 17 16 15 13 10 7 5 4 3 2 2 359 356 352 349
322 324 325 323 321 322 323 325 327 329 331 332 331 331 330 329 327 325 326 329 333 335 333 330 329 330 332 334 333 333 334 334 333 334 335 337 338 339 340 341 339 340 345 358 16 31 42 44 40 37 35 32 28 22 19 17 15 12 8 5 2 1 359 359 359 358 355 351 349
322 323 323 322 322 323 324 326 328 330 332 333 332 331 329 326 324 322 323 328 333 334 332 330 332 335 338 338 335 334 333 332 330 331 334 338 338 338 338 339 338 339 343 351 6 22 38 47 44 41 38 34 28 23 20 19 16 11 7 4 1 358 357 356 357 356 354 349 349
320 321 321 321 322 323 325 326 329 331 332 332 331 329 326 323 321 321 324 331 332 332 331 329 332 335 337 334 330 327 327 327 328 330 333 337 337 337 337 339 337 337 340 345 358 14 31 46 47 46 43 38 30 24 21 19 16 12 8 4 359 356 354 353 355 354 353 350 352
318 319 320 321 322 322 324 327 329 330 331 330 328 326 324 322 320 321 325 332 330 328 326 325 328 330 330 328 327 326 325 326 330 332 333 334 333 335 338 340 337 335 336 340 352 6 23 40 48 51 49 46 36 28 23 20 16 12 9 4 358 354 352 351 353 354 352 350 354
317 318 319 320 320 321 323 325 326 328 328 328 327 325 324 322 320 322 325 329 325 321 319 319 322 323 325 329 331 330 329 329 331 333 333 331 329 335 340 341 335 333 334 336 346 359 14 30 46 53 54 53 45 35 28 23 18 14 9 4 358 354 351 350 351 352 350 349 354
315 318 320 320 320 320 322 323 323 324 325 327 326 324 323 321 320 322 324 325 321 318 316 316 318 320 325 334 335 333 331 330 332 333 332 329 328 334 339 340 333 330 331 334 340 351 5 21 41 53 59 58 50 42 36 28 21 16 11 6 360 355 351 348 349 349 349 347 351
315 319 321 321 320 319 319 319 320 322 324 325 323 321 320 321 321 323 324 325 324 322 321 320 321 324 328 336 338 336 333 331 330 330 329 329 327 330 334 335 330 328 329 332 337 345 356 11 29 46 59 67 57 48 42 36 26 19 12 6 1 356 350 346 346 348 348 348 347